Paynesville, MN

1:11 AM CDT on August 22, 2017 (GMT -0500)
Paynesville

Weather History for KPEX - December, 2012

Change the Weather History Date:

Monday, December 10, 2012

  Actual Average (KLJF) Record (KLJF)
Temperature  
Mean Temperature -2 °F -  
Max Temperature 8 °F 26 °F 50 °F (1990)
Min Temperature -11 °F 9 °F -22 °F (1977)
Degree Days  
Heating Degree Days 66    
Moisture  
Dew Point -4 °F    
Average Humidity 78    
Maximum Humidity 85    
Minimum Humidity 68    
Precipitation  
Precipitation 0.00 in - - ()
Sea Level Pressure  
Sea Level Pressure 29.91 in    
Wind  
Wind Speed 6 mph (West)    
Max Wind Speed 10 mph    
Max Gust Speed 16 mph    
Visibility 10 miles    
Events Snow    
Averages and records for this station are not official NWS values.
T = Trace of Precipitation, MM = Missing Value Source: NWS Daily Summary

Daily Weather History Graph

Daily Weather History Graph

Search for Another Location

Airport or City:

Trip Planner

Search our weather history database for the weather conditions in past years. The results will help you decide how hot, cold, wet, or windy it might be!

Date:

Astronomy

Dec. 10, 2012 Rise Set
Actual Time 7:48 AM CST 4:35 PM CST
Civil Twilight 7:14 AM CST 5:09 PM CST
Nautical Twilight 6:36 AM CST 5:47 PM CST
Astronomical Twilight 6:00 AM CST 6:23 PM CST
Moon 4:27 AM CST (12/10) 2:30 PM CST (12/10)
Length of Visible Light 9h 55m
Length of Day
8h 47m
Waning Crescent, 10% of the Moon is Illuminated
Dec 10
Waning Crescent
Dec 13
New
Dec 19
First Quarter
Dec 28
Full
Jan 4
Last Quarter

Hourly Weather History & Observations

Time (CST) Temp. Windchill Dew Point Humidity Pressure Visibility Wind Dir Wind Speed Gust Speed Precip Events Conditions
12:13 AM 7.0 °F -5.7 °F 1.9 °F 80% 30.00 in 10.0 mi NW 8.1 mph - N/A   Clear
12:34 AM 6.1 °F -5.6 °F 0.9 °F 79% 30.00 in 10.0 mi NW 6.9 mph - N/A   Clear
12:53 AM 6.3 °F -6.5 °F 0.9 °F 78% 30.00 in 10.0 mi NW 8.1 mph - N/A   Mostly Cloudy
1:13 AM 7.5 °F -6.0 °F 2.1 °F 79% 30.00 in 10.0 mi NW 9.2 mph - N/A   Overcast
1:33 AM 8.2 °F -5.1 °F 2.8 °F 79% 30.00 in 10.0 mi NW 9.2 mph - N/A   Overcast
1:53 AM 8.1 °F -5.3 °F 2.7 °F 79% 30.00 in 10.0 mi NW 9.2 mph - N/A Snow Light Snow
2:13 AM 8.1 °F -6.2 °F 2.5 °F 78% 29.99 in 10.0 mi NNW 10.4 mph 16.1 mph N/A   Overcast
2:53 AM 6.4 °F -2.4 °F 1.4 °F 80% 29.99 in 10.0 mi WNW 4.6 mph - N/A Snow Light Snow
3:13 AM 6.1 °F -7.8 °F 1.0 °F 80% 29.99 in 10.0 mi NW 9.2 mph - N/A Snow Light Snow
3:33 AM 5.0 °F -9.1 °F -0.4 °F 78% 29.98 in 10.0 mi WNW 9.2 mph - N/A   Overcast
3:53 AM 3.9 °F -10.4 °F -1.3 °F 79% 29.98 in 10.0 mi WNW 9.2 mph - N/A   Mostly Cloudy
4:14 AM 2.5 °F -10.0 °F -2.4 °F 80% 29.98 in 10.0 mi WNW 6.9 mph - N/A   Mostly Cloudy
4:33 AM 0.7 °F -13.3 °F -4.4 °F 79% 29.98 in 10.0 mi WNW 8.1 mph - N/A   Scattered Clouds
4:53 AM -0.8 °F -13.9 °F -5.8 °F 79% 29.98 in 10.0 mi WNW 6.9 mph - N/A   Clear
5:13 AM -1.8 °F -18.5 °F -6.5 °F 80% 29.98 in 10.0 mi WNW 10.4 mph - N/A   Clear
5:33 AM -2.6 °F -19.4 °F -7.4 °F 80% 29.97 in 10.0 mi WNW 10.4 mph - N/A   Clear
5:53 AM -3.5 °F -17.1 °F -7.8 °F 82% 29.97 in 10.0 mi NW 6.9 mph - N/A   Clear
6:13 AM -4.0 °F -12.4 °F -8.5 °F 81% 29.97 in 10.0 mi WNW 3.5 mph - N/A   Clear
6:33 AM -4.7 °F - -8.5 °F 84% 29.97 in 10.0 mi Calm Calm - N/A   Clear
6:53 AM -5.3 °F - -9.4 °F 82% 29.97 in 10.0 mi Calm Calm - N/A   Clear
7:13 AM -7.1 °F -15.9 °F -11.4 °F 81% 29.97 in 10.0 mi West 3.5 mph - N/A   Clear
7:33 AM -7.6 °F -16.5 °F -11.4 °F 84% 29.96 in 10.0 mi West 3.5 mph - N/A   Clear
7:53 AM -10.7 °F -22.3 °F -14.6 °F 83% 29.96 in 7.0 mi West 4.6 mph - N/A   Clear
8:13 AM -11.0 °F -26.2 °F -15.7 °F 80% 29.96 in 10.0 mi West 6.9 mph - N/A Snow Light Snow
8:33 AM -9.0 °F -26.4 °F -13.2 °F 82% 29.96 in 10.0 mi West 9.2 mph - N/A   Clear
8:53 AM -10.7 °F -24.2 °F -15.2 °F 80% 29.97 in 10.0 mi West 5.8 mph - N/A   Clear
9:13 AM -8.7 °F -24.7 °F -12.8 °F 82% 29.96 in 10.0 mi West 8.1 mph - N/A   Clear
9:33 AM -7.1 °F -21.4 °F -11.4 °F 81% 29.97 in 10.0 mi West 6.9 mph - N/A   Clear
9:53 AM -5.8 °F -18.4 °F -10.3 °F 81% 29.97 in 10.0 mi WNW 5.8 mph - N/A   Clear
10:13 AM -4.9 °F -15.6 °F -9.9 °F 79% 29.97 in 10.0 mi WNW 4.6 mph - N/A   Clear
10:34 AM -3.6 °F -14.1 °F -9.0 °F 78% 29.96 in 10.0 mi WNW 4.6 mph - N/A   Clear
10:53 AM -3.3 °F - -8.9 °F 77% 29.96 in 10.0 mi Calm Calm - N/A   Clear
11:13 AM -2.2 °F - -8.7 °F 74% 29.94 in 10.0 mi Calm Calm - N/A   Clear
11:34 AM -1.7 °F -9.7 °F -8.1 °F 74% 29.94 in 10.0 mi West 3.5 mph - N/A   Clear
11:53 AM -1.1 °F - -7.2 °F 75% 29.93 in 10.0 mi Calm Calm - N/A   Clear
12:13 PM -0.4 °F - -6.9 °F 74% 29.92 in 10.0 mi Calm Calm - N/A   Clear
12:33 PM 0.5 °F - -6.7 °F 72% 29.91 in 10.0 mi Calm Calm - N/A   Clear
12:53 PM 1.4 °F - -5.8 °F 72% 29.91 in 10.0 mi Calm Calm - N/A   Clear
1:13 PM 1.4 °F -6.2 °F -5.8 °F 72% 29.90 in 10.0 mi SW 3.5 mph - N/A   Clear
1:33 PM 2.1 °F - -5.6 °F 70% 29.89 in 10.0 mi Calm Calm - N/A   Clear
1:53 PM 2.7 °F - -4.9 °F 71% 29.89 in 10.0 mi Calm Calm - N/A   Clear
2:13 PM 3.4 °F -4.0 °F -4.5 °F 70% 29.88 in 10.0 mi West 3.5 mph - N/A   Clear
2:33 PM 4.1 °F - -4.0 °F 69% 29.87 in 10.0 mi Calm Calm - N/A   Clear
2:53 PM 5.4 °F - -2.9 °F 69% 29.87 in 10.0 mi Calm Calm - N/A   Clear
3:13 PM 5.7 °F - -2.7 °F 68% 29.86 in 10.0 mi Calm Calm - N/A   Clear
3:33 PM 3.9 °F - -2.4 °F 75% 29.86 in 10.0 mi Calm Calm - N/A   Clear
3:53 PM 7.5 °F - 0.5 °F 73% 29.86 in 10.0 mi Calm Calm - N/A   Clear
4:13 PM 6.3 °F - 0.7 °F 78% 29.86 in 10.0 mi Calm Calm - N/A   Clear
4:33 PM 5.0 °F -2.1 °F 0.1 °F 80% 29.85 in 10.0 mi SE 3.5 mph - N/A   Clear
4:54 PM 4.1 °F - -0.0 °F 83% 29.85 in 10.0 mi Calm Calm - N/A   Clear
5:13 PM 3.9 °F - -0.9 °F 80% 29.85 in 10.0 mi Calm Calm - N/A   Clear
5:33 PM 3.2 °F - -1.5 °F 81% 29.85 in 10.0 mi Calm Calm - N/A   Clear
5:53 PM 1.8 °F - -2.9 °F 81% 29.85 in 10.0 mi Calm Calm - N/A   Clear
6:13 PM 2.8 °F - -2.4 °F 79% 29.85 in 10.0 mi Calm Calm - N/A   Clear
6:33 PM 2.5 °F - -1.1 °F 85% 29.84 in 10.0 mi Calm Calm - N/A   Scattered Clouds
6:53 PM 4.5 °F -6.3 °F 0.1 °F 82% 29.84 in 10.0 mi SSE 5.8 mph - N/A   Mostly Cloudy
7:13 PM 4.6 °F -8.5 °F -3.5 °F 69% 29.84 in 10.0 mi SSE 8.1 mph - N/A   Mostly Cloudy
7:33 PM 4.1 °F -9.2 °F -4.0 °F 69% 29.84 in 10.0 mi SSE 8.1 mph - N/A   Scattered Clouds
7:53 PM 3.0 °F -10.5 °F -4.0 °F 73% 29.84 in 10.0 mi South 8.1 mph - N/A   Scattered Clouds
8:13 PM 2.3 °F -13.4 °F -5.3 °F 71% 29.83 in 10.0 mi SSE 10.4 mph - N/A   Scattered Clouds
8:53 PM 3.0 °F -9.3 °F -3.6 °F 74% 29.82 in 10.0 mi SSE 6.9 mph - N/A   Overcast
9:13 PM 3.0 °F -10.5 °F -3.8 °F 73% 29.80 in 10.0 mi SSE 8.1 mph - N/A   Overcast
9:34 PM 2.3 °F -11.4 °F -3.5 °F 77% 29.81 in 10.0 mi SSE 8.1 mph - N/A   Scattered Clouds
9:53 PM 1.8 °F -7.8 °F -3.5 °F 79% 29.80 in 10.0 mi South 4.6 mph - N/A   Scattered Clouds
10:13 PM 1.9 °F - -3.1 °F 79% 29.80 in 10.0 mi Calm Calm - N/A   Mostly Cloudy
10:34 PM 2.3 °F -7.2 °F -2.2 °F 81% 29.79 in 10.0 mi South 4.6 mph - N/A   Scattered Clouds
10:53 PM 2.8 °F - -1.5 °F 82% 29.79 in 7.0 mi Calm Calm - N/A   Mostly Cloudy
11:13 PM 3.6 °F - -0.6 °F 83% 29.79 in 10.0 mi Calm Calm - N/A   Overcast
11:34 PM 3.7 °F - -0.4 °F 83% 29.79 in 10.0 mi Calm Calm - N/A Snow Light Snow
11:53 PM 3.7 °F - -0.2 °F 84% 29.78 in 7.0 mi Calm Calm - N/A Snow Light Snow